DW6706 Weather Reports


time (UTC)temp
F
wind
direction
speed
knots
gust
knots
rain 1hr
in
rain 24hr
in
rain mn
in
humidity
%
barometer
mb
20260505210535 84 88 0.0 1.7 0.00 0.00 0.00 79 1006.4
20260505202535 84 80 1.7 5.2 0.00 0.00 0.00 80 1007.0
20260505200535 83 76 0.0 1.7 0.00 0.00 0.00 81 1007.3
20260505195535 83 360 0.0 3.5 0.00 0.00 0.00 80 1007.5
20260505193535 83 27 1.7 5.2 0.00 0.00 0.00 80 1007.8
20260505191535 83 11 0.0 4.3 0.00 0.00 0.00 81 1007.8
20260505190535 82 31 2.6 4.3 0.00 0.00 0.00 81 1007.8
20260505185535 82 5 0.0 4.3 0.00 0.00 0.00 83 1007.8
20260505183535 81 333 0.0 4.3 0.00 0.00 0.00 84 1008.0
20260505182535 80 32 1.7 3.5 0.00 0.00 0.00 84 1008.2
20260505180535 80 355 1.7 4.3 0.00 0.00 0.00 84 1008.4
20260505175535 80 63 0.9 1.7 0.00 0.00 0.00 85 1008.3
20260505174535 79 32 0.0 2.6 0.00 0.00 0.00 86 1008.5
20260505173535 79 325 0.0 3.5 0.00 0.00 0.00 86 1008.6
20260505172535 79 355 0.0 1.7 0.00 0.00 0.00 86 1008.5
20260505171535 79 12 0.9 4.3 0.00 0.00 0.00 85 1008.6
20260505165535 79 80 0.0 1.7 0.00 0.00 0.00 86 1008.8
20260505164535 79 33 0.0 3.5 0.00 0.00 0.00 86 1008.8
20260505163535 79 38 0.0 1.7 0.00 0.00 0.00 87 1008.8
20260505162535 78 277 0.0 3.5 0.00 0.00 0.00 87 1008.8
20260505160535 77 265 0.9 4.3 0.00 0.00 0.00 87 1008.7
20260505152535 77 5 0.9 4.3 0.00 0.00 0.00 88 1008.5
20260505150535 76 51 0.0 4.3 0.00 0.00 0.00 88 1008.3
20260505140535 75 68 0.0 2.6 0.00 0.00 0.00 90 1008.3
20260505123534 72 47 0.0 0.9 0.00 0.00 0.00 93 1007.7
20260505122535 71 47 0.0 1.7 0.00 0.00 0.00 93 1008.0
20260505115535 71 39 0.0 0.9 0.00 0.00 0.00 92 1007.6
20260505114534 71 39 0.0 0.0 0.00 0.00 0.00 92 1007.7
20260505113534 71 39 0.0 0.0 0.00 0.00 0.00 92 1007.5
20260505112534 71 39 0.0 0.0 0.00 0.00 0.00 92 1007.8
20260505111535 71 39 0.0 0.0 0.00 0.00 0.00 92 1007.8
20260505110534 71 39 0.0 0.0 0.00 0.00 0.00 92 1007.6
20260505100534 70 40 0.0 0.0 0.00 0.00 0.00 91 1007.7
20260505095534 70 40 0.0 0.0 0.00 0.00 0.00 91 1007.8
20260505094534 70 40 0.0 0.0 0.00 0.00 0.00 91 1007.9
20260505093534 70 40 0.0 0.0 0.00 0.00 0.00 91 1007.8
20260505092534 70 40 0.0 0.0 0.00 0.00 0.00 91 1007.8
20260505091535 70 40 0.0 0.0 0.00 0.00 0.00 91 1008.1
20260505090534 70 40 0.0 0.0 0.00 0.00 0.00 90 1008.1
20260505084534 70 40 0.0 0.0 0.00 0.00 0.00 90 1008.1
20260505083534 70 40 0.0 0.0 0.00 0.00 0.00 90 1008.2
20260505082534 70 40 0.0 0.0 0.00 0.00 0.00 89 1008.3
20260505081534 70 40 0.0 0.0 0.00 0.00 0.00 89 1008.5
20260505074534 70 40 0.0 0.0 0.00 0.00 0.00 89 1008.7
20260505073535 70 40 0.0 0.0 0.00 0.00 0.00 89 1008.7
20260505072534 70 40 0.0 0.9 0.00 0.00 0.00 89 1008.7
20260505071534 70 40 0.0 0.0 0.00 0.00 0.00 89 1008.8
20260505070534 70 40 0.0 0.9 0.00 0.00 0.00 89 1009.0
20260505064534 70 40 0.0 0.9 0.00 0.00 0.00 88 1009.1
20260505063534 70 40 0.0 0.0 0.00 0.00 0.00 88 1009.1
20260505062534 70 40 0.0 0.9 0.00 0.00 0.00 88 1009.2
20260505061534 70 40 0.0 0.0 0.00 0.00 0.00 88 1009.2
20260505060534 70 40 0.0 0.9 0.00 0.00 0.00 88 1009.4
20260505055534 70 39 0.0 0.0 0.00 0.00 0.00 88 1009.6
20260505053534 70 39 0.0 0.9 0.00 0.00 0.00 87 1009.5
20260505052534 71 39 0.0 0.9 0.00 0.00 0.00 87 1009.8
20260505051534 71 39 0.0 0.0 0.00 0.00 0.00 87 1009.9
20260505050534 71 39 0.0 0.9 0.00 0.00 0.00 87 1009.9
20260505041534 72 39 0.0 0.9 0.00 0.00 0.00 85 1009.9
20260505034534 72 40 0.0 1.7 0.00 0.00 0.00 85 1010.0
20260505033534 73 83 0.0 1.7 0.00 0.00 0.00 85 1010.0
20260505031534 73 61 0.0 1.7 0.00 0.00 0.00 84 1010.2
20260505030534 73 61 0.0 0.9 0.00 0.00 0.00 83 1010.1
20260505025534 73 79 0.9 1.7 0.00 0.00 0.00 83 1010.0
20260505024534 73 68 0.0 1.7 0.00 0.00 0.00 83 1009.8
20260505022534 74 69 0.0 3.5 0.00 0.00 0.00 82 1009.9
20260505020534 74 28 0.0 3.5 0.00 0.00 0.00 82 1009.7
20260505015534 74 90 0.9 1.7 0.00 0.00 0.00 82 1009.7
20260505014534 74 90 0.0 1.7 0.00 0.00 0.00 81 1009.6
20260505013534 74 51 0.0 4.3 0.00 0.00 0.00 81 1009.5
20260505012534 74 84 0.9 0.9 0.00 0.00 0.00 81 1009.3
20260505011534 75 84 0.0 2.6 0.00 0.00 0.00 80 1009.2
20260505010534 75 88 0.0 0.9 0.00 0.00 0.00 80 1009.3
20260505005534 76 88 0.0 0.9 0.00 0.00 0.00 79 1009.3
20260505004534 76 88 0.9 0.9 0.00 0.00 0.00 78 1009.2
20260505003534 76 88 0.0 1.7 0.00 0.00 0.00 77 1009.3
20260505002534 77 66 1.7 4.3 0.00 0.00 0.00 77 1009.0
20260505001534 77 50 0.0 0.0 0.00 0.00 0.00 76 1009.3
20260504235534 78 50 0.0 2.6 0.00 0.00 0.00 75 1009.5
20260504234533 78 74 0.0 1.7 0.00 0.00 0.00 74 1009.3
20260504233533 79 95 0.9 5.2 0.00 0.00 0.00 74 1009.2
20260504232533 79 5 0.0 1.7 0.00 0.00 0.00 72 1009.5
20260504231534 79 48 0.0 1.7 0.00 0.00 0.00 71 1009.6
20260504230533 79 51 0.0 1.7 0.00 0.00 0.00 72 1009.8
20260504225533 80 17 0.9 3.5 0.00 0.00 0.00 72 1009.9
20260504224533 80 20 0.9 1.7 0.00 0.00 0.00 72 1009.7
20260504223533 80 75 0.9 3.5 0.00 0.00 0.00 69 1009.9
20260504222534 80 5 0.0 1.7 0.00 0.00 0.00 71 1010.0
20260504221533 81 85 0.0 4.3 0.00 0.00 0.00 69 1010.1
20260504220533 81 72 0.0 1.7 0.00 0.00 0.00 68 1010.2
20260504215533 81 57 0.0 0.0 0.00 0.00 0.00 67 1010.2
20260504214534 82 56 0.0 0.9 0.00 0.00 0.00 67 1010.4
20260504212533 82 78 0.0 3.5 0.00 0.00 0.00 64 1010.6